Location: Marcé
(47.5801°N, 0.3280°W)
Time: 22:47:35
(UTC+01:00)

Transit 2A - Pass Details

Date: 06 December 2021
Orbit: 591 x 967 km, 66.7° (Epoch: 23 January)

Event Time Altitude Azimuth Distance (km) Brightness Sun altitude
Rises 05:25:49 0° 313° (NW) 3,592 - -30.8°
Reaches altitude 10° 05:29:56 10° 339° (NNW) 2,691 - -30.1°
Exits shadow 05:31:53 13° 357° (N) 2,485 8.6 -29.8°
Maximum altitude 05:32:56 14° 7° (N) 2,458 8.6 -29.6°
Drops below altitude 10° 05:35:58 10° 36° (NE) 2,715 9.2 -29.1°
Sets 05:40:09 0° 62° (ENE) 3,649 10.4 -28.4°
